Location: Sulphur Springs (historical)
(38.1246°N, 122.1900°W)
Time: 14:53:52
(UTC+00:00)

Daily predictions for brighter satellites

Satellite Brightness Start Highest point End
(mag) Time Altitude Azimuth Time Altitude Azimuth Time Altitude Azimuth
Cosmos 44 Rocket 4.5 12:10:28 35° SSE 12:10:28 35° SSE 12:13:26 10° SSE
ERS-2 4.3 12:06:42 10° SE 12:09:43 25° ENE 12:10:47 22° NE
Nadezhda 4 Rocket 4.0 12:03:58 10° S 12:10:02 76° E 12:16:11 10° N
CZ-4B R/B 4.2 12:08:01 10° ESE 12:10:27 18° ENE 12:12:53 10° NNE
Cosmos 2082 Rocket 2.4 12:09:55 52° SSE 12:11:10 69° ESE 12:16:45 10° NNE
Cosmos 2369 4.3 12:08:19 23° N 12:11:45 53° ENE 12:17:15 10° SE
Lacrosse 5 rocket 3.9 12:18:45 11° NNE 12:18:45 11° NNE 12:18:57 10° NNE
DELTA 2 R/B (1) 4.4 12:19:26 37° S 12:19:26 37° S 12:23:40 10° SE
Cosmos 2180 Rocket 4.3 12:13:37 10° NNW 12:19:48 68° W 12:25:54 10° S
ALOS 3.1 12:22:47 10° NNE 12:27:19 49° E 12:31:50 10° S
BREEZE-M DEB (TANK) 4.4 12:28:32 44° NW 12:30:40 87° NE 12:49:59 10° SE
Cosmos 1697 Rocket 2.5 12:31:55 31° NNW 12:34:47 84° WSW 12:40:26 10° SSE
Abrixas rocket 4.2 12:38:21 22° NE 12:38:21 22° NE 12:40:01 10° E
ISS -1.1 12:41:10 12° N 12:41:10 12° N 12:41:46 10° NNE
COSMOS 2406 4.4 12:41:49 26° NNW 12:41:49 26° NNW 12:45:14 10° N
FENGYUN 3A 3.8 12:36:39 10° NNE 12:42:07 74° ESE 12:47:32 10° S
ATLAS CENTAUR R/B 3.6 12:42:22 10° SSE 12:45:35 23° ESE 12:48:41 10° ENE
ATLAS 3B R/B 2.7 12:44:55 39° W 12:46:52 51° NW 12:53:19 10° NNE
ADEOS 3.5 12:43:29 10° NNE 12:48:44 89° ESE 12:53:57 10° SSW
Cosmos 1400 Rocket 3.3 12:46:22 10° N 12:50:14 57° E 12:54:03 10° SSE
ADEOS Rocket 2.9 12:45:06 10° S 12:50:21 47° W 12:55:43 10° NNW
Cosmos 1300 2.7 12:46:39 10° N 12:50:28 78° E 12:54:16 10° S
Meteor 2-5 Rocket 3.7 12:46:10 10° SSW 12:51:46 60° WNW 12:57:32 10° N
Cosmos 1980 Rocket 2.2 12:52:36 10° NNW 12:58:13 80° ENE 13:03:48 10° SSE
SL-14 R/B 4.1 13:02:57 33° NW 13:02:57 33° NW 13:05:46 10° N
CZ-4B R/B 3.8 12:58:05 10° NNE 13:02:13 89° ESE 13:06:07 10° SSW
Cosmos 2228 3.1 12:59:19 10° NNW 13:03:35 54° W 13:07:52 10° S
Cosmos 1726 Rocket 3.4 12:59:18 10° N 13:03:46 77° W 13:08:13 10° S
Cosmos 1992 Rocket 3.9 12:59:31 10° NNW 13:04:42 66° WSW 13:09:50 10° S
Cosmos 2026 Rocket 4.0 13:00:23 10° S 13:06:45 84° W 13:13:10 10° N
Cosmos 2195 Rocket 4.4 13:05:58 10° SSW 13:12:07 64° W 13:18:14 10° N
CZ-2C R/B 3.7 13:13:14 10° NNW 13:16:07 20° NW 13:16:07 20° NW
Meteor PRIRODA 4.2 13:13:49 10° NNE 13:17:26 60° E 13:21:04 10° S
Meteor 2-10 Rocket 4.3 13:13:11 10° N 13:18:06 53° ENE 13:23:08 10° SSE
Cosmos 614 Rocket 3.9 13:13:25 10° SSW 13:18:33 70° WNW 13:23:40 10° NNE
Cosmos 1606 Rocket 4.0 13:15:58 10° NNW 13:20:06 38° W 13:24:13 10° SSW
Cosmos 1484 Rocket 3.3 13:18:04 10° N 13:21:33 34° WNW 13:24:58 10° SW
Cosmos 1315 Rocket 4.0 13:19:49 10° N 13:23:49 47° ENE 13:27:48 10° SSE
Cosmos 1689 Rocket 2.3 13:22:21 10° SSE 13:25:15 70° ENE 13:28:10 10° N
COSMO-SKYMED 1 2.6 13:23:26 10° SSE 13:27:46 86° ENE 13:32:08 10° NNW
Cosmos 1833 Rocket 4.2 13:29:06 16° WNW 13:29:51 16° NW 13:33:15 10° NNW
Cosmos 2322 Rocket 3.8 13:25:55 10° N 13:31:02 34° ENE 13:36:07 10° SE
Cosmos 2278 3.9 13:25:54 10° NNW 13:31:22 51° WSW 13:36:47 10° S
Uosat 12 SS-18 rocket 4.3 13:26:47 10° SSW 13:31:44 77° ESE 13:36:07 10° NE
METEOR-M 4.4 13:27:52 10° N 13:32:58 46° WNW 13:38:01 10° SW
SAR-Lupe-4 3.8 13:32:29 10° S 13:35:54 44° W 13:39:21 10° NNW
SJ-12 4.0 13:32:09 10° N 13:36:10 54° WNW 13:40:08 10° SSW
Cosmos 1455 3.1 13:34:06 10° N 13:37:54 52° E 13:41:40 10° SSE
SL-19 R/B 4.5 13:37:38 10° N 13:40:06 27° WNW 13:42:41 10° SW
H-2A R/B 3.9 13:37:02 10° NNE 13:41:10 44° E 13:45:08 10° S
Cosmos 1023 Rocket 4.4 13:36:50 10° SSW 13:41:54 80° WNW 13:47:01 10° NNE
CZ-4B R/B 2.7 13:39:49 10° SSW 13:42:31 21° W 13:45:15 10° NW
ERS-2 3.6 13:40:43 10° SW 13:43:13 18° W 13:45:22 12° WNW
Meteor 1-31 Rocket 3.8 13:43:29 10° NNW 13:46:44 25° WNW 13:49:57 10° SW
Meteor 2-19 Rocket 4.4 13:41:46 10° SSW 13:47:50 72° W 13:53:54 10° N
CREW DRAGON DEMO-1 DEB 4.0 13:48:40 10° NW 13:51:30 36° NNE 13:54:18 10° ESE
Cosmos 2292 Rocket 2.8 13:49:00 10° S 13:52:03 90° WNW 13:55:44 10° N
Cosmos 1703 3.6 13:48:35 10° S 13:52:25 69° E 13:56:18 10° NNE
Cosmos 1190 Rocket 4.0 13:48:58 10° SSW 13:54:10 65° WNW 13:59:22 10° NNE
Cosmos 2082 Rocket 3.6 13:52:10 10° W 13:55:47 17° NW 13:59:25 10° NNW
Cosmos 2058 Rocket 3.9 13:53:44 10° NNW 13:57:38 30° W 14:01:31 10° SSW
PSLV R/B 4.4 13:57:35 10° S 14:01:35 43° W 14:05:37 10° NNW
ALOS 3.8 14:01:29 10° NNW 14:04:18 16° WNW 14:07:07 10° WSW
PSLV R/B 3.9 14:02:39 10° N 14:06:45 67° WNW 14:10:48 10° SSW
CZ-4B R/B 3.8 14:03:12 10° NNW 14:06:47 29° WNW 14:10:29 10° SW
Cosmos 2098 Rocket 3.8 14:02:01 10° SSW 14:07:58 51° W 14:12:46 10° N
SL-16 R/B 2.3 14:02:36 10° NNW 14:08:19 86° ENE 14:13:59 10° SSE
CZ-4B DEB 4.3 14:04:56 10° NNE 14:10:26 89° WNW 14:15:54 10° SSW
